{"data":{"norad_id":55835,"intl_designator":"2023-029AR","name":"ONEWEB-0720","alt_names":[],"object_type":"PAYLOAD","status":"ACTIVE","operator":null,"country":"UK","launch_date":"2023-03-09","launch_site_code":"AFETR","launch_vehicle":null,"mission":null,"orbit_class":"UNKNOWN","rcs_meters":null,"size_class":null,"mass_kg":null,"dimensions":null,"purposes":["comms"],"wikipedia_slug":null,"has_3d_model":false,"image_url":null,"decayed_at":null,"tle_current":{"epoch":"2026-09-19T19:38:56.802336Z","epoch_age_seconds":77022,"freshness":"FRESH","line1":"1 55835U 23029AR  26262.81871299 -.00000091  00000+0 -26022-3 0  9991","line2":"2 55835  87.9103 286.1205 0001896  84.8846 275.2503 13.19725380171329","mean_motion":13.1972538,"eccentricity":0.0001896,"inclination_deg":87.9103,"raan_deg":286.1205,"arg_perigee_deg":84.8846,"mean_anomaly_deg":275.2503,"bstar":-0.00026022,"rev_number":17132,"period_min":109.11360968143,"perigee_km":1184.33498344,"apogee_km":1187.2032166332,"semimajor_km":7563.9061000366,"source":"CELESTRAK","updated_at":"2026-09-20T09:00:44.785895Z"}}}